Location: Ellerstadt
(49.4644°N, 8.2615°E)
Time: 04:51:28
(UTC+00:00)

Cosmos 2184 Rocket - Pass Details

Date: 03 March 2021
Orbit: 960 x 1001 km, 82.9° (Epoch: 11 April)

Event Time Altitude Azimuth Distance (km) Brightness Sun altitude
Rises 17:54:44 0° 184° (S) 3,630 7.1 -7.5°
Reaches altitude 10° 17:57:13 10° 184° (S) 2,690 6.4 -7.9°
Maximum altitude 18:03:23 83° 97° (E) 979 4.0 -8.9°
Drops below altitude 10° 18:09:37 10° 11° (N) 2,727 6.3 -10.0°
Sets 18:12:09 0° 11° (N) 3,684 6.9 -10.4°
